Volver al catálogo

COSMOS 1763

ActivoMilitarLEO
NORAD 16860·PAYLOAD·🇷🇺 Russia

Lanzado Jul 16, 1986 desde Plesetsk Cosmodrome

Loading…

Próximos Pases (próximas 24 horas)

TLE

ActualizadoSource: Space-Track

Época: Sep 13, 2026, 22:04 UTC

1 16860U 86052A   26256.91983094  .00000091  00000-0  37428-4 0  9994
2 16860  74.0332  42.6293 0030032  26.6256 333.6432 14.39347491106571

Sigue COSMOS 1763 en tiempo real con AllMySat

Download on the App Store